owner,sensor,date,latitude,longitude,relative_humidity,qcFlag 
COMPS,ioos:station:USF.COMPS:C13:1,2016-09-01T00:05:00Z,26.0630,-83.0730,76.45,1111122 
COMPS,ioos:station:USF.COMPS:C13:1,2016-09-01T00:35:00Z,26.0630,-83.0730,83.12,1111122 
COMPS,ioos:station:USF.COMPS:C13:1,2016-09-01T01:05:00Z,26.0630,-83.0730,83.96,1111122 
COMPS,ioos:station:USF.COMPS:C13:1,2016-09-01T01:35:00Z,26.0630,-83.0730,86.07,1111122 
COMPS,ioos:station:USF.COMPS:C13:1,2016-09-01T02:05:00Z,26.0630,-83.0730,82.63,1111122 
COMPS,ioos:station:USF.COMPS:C13:1,2016-09-01T02:35:00Z,26.0630,-83.0730,80.71,1111122 
COMPS,ioos:station:USF.COMPS:C13:1,2016-09-01T03:05:00Z,26.0630,-83.0730,83.57,1111122 
COMPS,ioos:station:USF.COMPS:C13:1,2016-09-01T03:35:00Z,26.0630,-83.0730,82.23,1111122 
COMPS,ioos:station:USF.COMPS:C13:1,2016-09-01T04:05:00Z,26.0630,-83.0730,83.5,1111122 
COMPS,ioos:station:USF.COMPS:C13:1,2016-09-01T04:35:00Z,26.0630,-83.0730,78.09,1111122 
COMPS,ioos:station:USF.COMPS:C13:1,2016-09-01T05:05:00Z,26.0630,-83.0730,78.86,1111122 
COMPS,ioos:station:USF.COMPS:C13:1,2016-09-01T05:35:00Z,26.0630,-83.0730,79.2,1111122 
COMPS,ioos:station:USF.COMPS:C13:1,2016-09-01T06:05:00Z,26.0630,-83.0730,79.04,1111122 
COMPS,ioos:station:USF.COMPS:C13:1,2016-09-01T06:35:00Z,26.0630,-83.0730,79.15,1111122 
COMPS,ioos:station:USF.COMPS:C13:1,2016-09-01T07:05:00Z,26.0630,-83.0730,79.72,1111122 
COMPS,ioos:station:USF.COMPS:C13:1,2016-09-01T07:35:00Z,26.0630,-83.0730,80.32,1111122 
COMPS,ioos:station:USF.COMPS:C13:1,2016-09-01T08:05:00Z,26.0630,-83.0730,80.72,1111122 
COMPS,ioos:station:USF.COMPS:C13:1,2016-09-01T08:35:00Z,26.0630,-83.0730,80.65,1111122 
COMPS,ioos:station:USF.COMPS:C13:1,2016-09-01T09:05:00Z,26.0630,-83.0730,81.06,1111122 
COMPS,ioos:station:USF.COMPS:C13:1,2016-09-01T09:35:00Z,26.0630,-83.0730,80.69,1111122 
COMPS,ioos:station:USF.COMPS:C13:1,2016-09-01T10:05:00Z,26.0630,-83.0730,81.93,1111122 
COMPS,ioos:station:USF.COMPS:C13:1,2016-09-01T10:35:00Z,26.0630,-83.0730,81.25,1111122 
COMPS,ioos:station:USF.COMPS:C13:1,2016-09-01T11:05:00Z,26.0630,-83.0730,81.88,1111122 
COMPS,ioos:station:USF.COMPS:C13:1,2016-09-01T11:35:00Z,26.0630,-83.0730,80.95,1111122 
COMPS,ioos:station:USF.COMPS:C13:1,2016-09-01T12:05:00Z,26.0630,-83.0730,80.95,1111122 
COMPS,ioos:station:USF.COMPS:C13:1,2016-09-01T12:35:00Z,26.0630,-83.0730,79.16,1111122 
COMPS,ioos:station:USF.COMPS:C13:1,2016-09-01T13:05:00Z,26.0630,-83.0730,80.05,1111122 
COMPS,ioos:station:USF.COMPS:C13:1,2016-09-01T13:35:00Z,26.0630,-83.0730,79.87,1111122 
COMPS,ioos:station:USF.COMPS:C13:1,2016-09-01T14:05:00Z,26.0630,-83.0730,80.55,1111122 
COMPS,ioos:station:USF.COMPS:C13:1,2016-09-01T14:35:00Z,26.0630,-83.0730,80.38,1111122 
COMPS,ioos:station:USF.COMPS:C13:1,2016-09-01T15:05:00Z,26.0630,-83.0730,83.14,1111122 
COMPS,ioos:station:USF.COMPS:C13:1,2016-09-01T15:35:00Z,26.0630,-83.0730,82.07,1111122 
COMPS,ioos:station:USF.COMPS:C13:1,2016-09-01T16:05:00Z,26.0630,-83.0730,82.1,1111122 
COMPS,ioos:station:USF.COMPS:C13:1,2016-09-01T16:35:00Z,26.0630,-83.0730,82.68,1111122 
COMPS,ioos:station:USF.COMPS:C13:1,2016-09-01T17:05:00Z,26.0630,-83.0730,82.46,1111122 
COMPS,ioos:station:USF.COMPS:C13:1,2016-09-01T17:35:00Z,26.0630,-83.0730,82.15,1111122 
COMPS,ioos:station:USF.COMPS:C13:1,2016-09-01T18:05:00Z,26.0630,-83.0730,83.37,1111122 
COMPS,ioos:station:USF.COMPS:C13:1,2016-09-01T18:35:00Z,26.0630,-83.0730,82.73,1111122 
COMPS,ioos:station:USF.COMPS:C13:1,2016-09-01T19:05:00Z,26.0630,-83.0730,85.06,1111122 
COMPS,ioos:station:USF.COMPS:C13:1,2016-09-01T19:35:00Z,26.0630,-83.0730,82.17,1111122 
COMPS,ioos:station:USF.COMPS:C13:1,2016-09-01T20:05:00Z,26.0630,-83.0730,82.53,1111122 
COMPS,ioos:station:USF.COMPS:C13:1,2016-09-01T20:35:00Z,26.0630,-83.0730,83.12,1111122 
COMPS,ioos:station:USF.COMPS:C13:1,2016-09-01T21:05:00Z,26.0630,-83.0730,85.0,1111122 
COMPS,ioos:station:USF.COMPS:C13:1,2016-09-01T21:35:00Z,26.0630,-83.0730,85.49,1111122 
COMPS,ioos:station:USF.COMPS:C13:1,2016-09-01T22:05:00Z,26.0630,-83.0730,84.63,1111122 
COMPS,ioos:station:USF.COMPS:C13:1,2016-09-01T22:35:00Z,26.0630,-83.0730,83.67,1111122 
COMPS,ioos:station:USF.COMPS:C13:1,2016-09-01T23:05:00Z,26.0630,-83.0730,85.92,1111122 
COMPS,ioos:station:USF.COMPS:C13:1,2016-09-01T23:35:00Z,26.0630,-83.0730,79.97,1111122 
COMPS,ioos:station:USF.COMPS:C13:1,2016-09-02T00:05:00Z,26.0630,-83.0730,73.85,1111122 
COMPS,ioos:station:USF.COMPS:C13:1,2016-09-02T00:35:00Z,26.0630,-83.0730,77.36,1111122 
COMPS,ioos:station:USF.COMPS:C13:1,2016-09-02T01:05:00Z,26.0630,-83.0730,82.33,1111122 
COMPS,ioos:station:USF.COMPS:C13:1,2016-09-02T01:35:00Z,26.0630,-83.0730,82.67,1111122 
COMPS,ioos:station:USF.COMPS:C13:1,2016-09-02T02:05:00Z,26.0630,-83.0730,81.66,1111122 
COMPS,ioos:station:USF.COMPS:C13:1,2016-09-02T02:35:00Z,26.0630,-83.0730,77.61,1111122 
COMPS,ioos:station:USF.COMPS:C13:1,2016-09-02T03:05:00Z,26.0630,-83.0730,80.19,1111122 
COMPS,ioos:station:USF.COMPS:C13:1,2016-09-02T03:35:00Z,26.0630,-83.0730,82.63,1111122 
COMPS,ioos:station:USF.COMPS:C13:1,2016-09-02T04:05:00Z,26.0630,-83.0730,83.19,1111122 
COMPS,ioos:station:USF.COMPS:C13:1,2016-09-02T04:35:00Z,26.0630,-83.0730,81.79,1111122 
COMPS,ioos:station:USF.COMPS:C13:1,2016-09-02T05:05:00Z,26.0630,-83.0730,83.93,1111122 
COMPS,ioos:station:USF.COMPS:C13:1,2016-09-02T05:35:00Z,26.0630,-83.0730,83.25,1111122 
COMPS,ioos:station:USF.COMPS:C13:1,2016-09-02T06:05:00Z,26.0630,-83.0730,83.11,1111122 
COMPS,ioos:station:USF.COMPS:C13:1,2016-09-02T06:35:00Z,26.0630,-83.0730,83.65,1111122 
COMPS,ioos:station:USF.COMPS:C13:1,2016-09-02T07:05:00Z,26.0630,-83.0730,83.61,1111122 
COMPS,ioos:station:USF.COMPS:C13:1,2016-09-02T07:35:00Z,26.0630,-83.0730,84.08,1111122 
COMPS,ioos:station:USF.COMPS:C13:1,2016-09-02T08:05:00Z,26.0630,-83.0730,84.49,1111122 
COMPS,ioos:station:USF.COMPS:C13:1,2016-09-02T08:35:00Z,26.0630,-83.0730,84.34,1111122 
COMPS,ioos:station:USF.COMPS:C13:1,2016-09-02T09:05:00Z,26.0630,-83.0730,84.75,1111122 
COMPS,ioos:station:USF.COMPS:C13:1,2016-09-02T09:35:00Z,26.0630,-83.0730,84.62,1111122 
COMPS,ioos:station:USF.COMPS:C13:1,2016-09-02T10:05:00Z,26.0630,-83.0730,84.85,1111122 
COMPS,ioos:station:USF.COMPS:C13:1,2016-09-02T10:35:00Z,26.0630,-83.0730,83.61,1111122 
COMPS,ioos:station:USF.COMPS:C13:1,2016-09-02T11:05:00Z,26.0630,-83.0730,84.09,1111122 
COMPS,ioos:station:USF.COMPS:C13:1,2016-09-02T11:35:00Z,26.0630,-83.0730,84.26,1111122 
COMPS,ioos:station:USF.COMPS:C13:1,2016-09-02T12:05:00Z,26.0630,-83.0730,83.88,1111122 
COMPS,ioos:station:USF.COMPS:C13:1,2016-09-02T12:35:00Z,26.0630,-83.0730,83.14,1111122 
COMPS,ioos:station:USF.COMPS:C13:1,2016-09-02T13:05:00Z,26.0630,-83.0730,83.61,1111122 
COMPS,ioos:station:USF.COMPS:C13:1,2016-09-02T13:35:00Z,26.0630,-83.0730,82.97,1111122 
COMPS,ioos:station:USF.COMPS:C13:1,2016-09-02T14:05:00Z,26.0630,-83.0730,81.67,1111122 
COMPS,ioos:station:USF.COMPS:C13:1,2016-09-02T14:35:00Z,26.0630,-83.0730,74.96,1111122 
COMPS,ioos:station:USF.COMPS:C13:1,2016-09-02T15:05:00Z,26.0630,-83.0730,79.63,1111122 
COMPS,ioos:station:USF.COMPS:C13:1,2016-09-02T15:35:00Z,26.0630,-83.0730,84.62,1111122 
COMPS,ioos:station:USF.COMPS:C13:1,2016-09-02T16:05:00Z,26.0630,-83.0730,83.81,1111122 
COMPS,ioos:station:USF.COMPS:C13:1,2016-09-02T16:35:00Z,26.0630,-83.0730,84.01,1111122 
COMPS,ioos:station:USF.COMPS:C13:1,2016-09-02T17:05:00Z,26.0630,-83.0730,85.33,1111122 
COMPS,ioos:station:USF.COMPS:C13:1,2016-09-02T17:35:00Z,26.0630,-83.0730,83.97,1111122 
COMPS,ioos:station:USF.COMPS:C13:1,2016-09-02T18:05:00Z,26.0630,-83.0730,82.87,1111122 
COMPS,ioos:station:USF.COMPS:C13:1,2016-09-02T18:35:00Z,26.0630,-83.0730,84.69,1111122 
COMPS,ioos:station:USF.COMPS:C13:1,2016-09-02T20:05:00Z,26.0630,-83.0730,83.33,1111122 
COMPS,ioos:station:USF.COMPS:C13:1,2016-09-02T20:35:00Z,26.0630,-83.0730,82.74,1111122 
COMPS,ioos:station:USF.COMPS:C13:1,2016-09-02T21:05:00Z,26.0630,-83.0730,91.89,1111122 
COMPS,ioos:station:USF.COMPS:C13:1,2016-09-02T21:35:00Z,26.0630,-83.0730,90.28,1111122 
COMPS,ioos:station:USF.COMPS:C13:1,2016-09-02T22:05:00Z,26.0630,-83.0730,88.33,1111122 
COMPS,ioos:station:USF.COMPS:C13:1,2016-09-02T22:35:00Z,26.0630,-83.0730,87.56,1111122 
COMPS,ioos:station:USF.COMPS:C13:1,2016-09-02T23:05:00Z,26.0630,-83.0730,81.45,1111122 
COMPS,ioos:station:USF.COMPS:C13:1,2016-09-02T23:35:00Z,26.0630,-83.0730,84.42,1111122 
COMPS,ioos:station:USF.COMPS:C13:1,2016-09-03T00:05:00Z,26.0630,-83.0730,79.88,1111122 
COMPS,ioos:station:USF.COMPS:C13:1,2016-09-03T00:35:00Z,26.0630,-83.0730,78.28,1111122 
COMPS,ioos:station:USF.COMPS:C13:1,2016-09-03T01:05:00Z,26.0630,-83.0730,74.45,1111122 
COMPS,ioos:station:USF.COMPS:C13:1,2016-09-03T01:35:00Z,26.0630,-83.0730,73.81,1111122 
COMPS,ioos:station:USF.COMPS:C13:1,2016-09-03T02:05:00Z,26.0630,-83.0730,73.54,1111122 
COMPS,ioos:station:USF.COMPS:C13:1,2016-09-03T02:35:00Z,26.0630,-83.0730,72.71,1111122 
COMPS,ioos:station:USF.COMPS:C13:1,2016-09-03T03:05:00Z,26.0630,-83.0730,71.7,1111122 
COMPS,ioos:station:USF.COMPS:C13:1,2016-09-03T03:35:00Z,26.0630,-83.0730,70.23,1111122 
COMPS,ioos:station:USF.COMPS:C13:1,2016-09-03T04:05:00Z,26.0630,-83.0730,69.79,1111122 
COMPS,ioos:station:USF.COMPS:C13:1,2016-09-03T04:35:00Z,26.0630,-83.0730,72.12,1111122 
COMPS,ioos:station:USF.COMPS:C13:1,2016-09-03T05:05:00Z,26.0630,-83.0730,75.09,1111122 
COMPS,ioos:station:USF.COMPS:C13:1,2016-09-03T05:35:00Z,26.0630,-83.0730,70.19,1111122 
COMPS,ioos:station:USF.COMPS:C13:1,2016-09-03T06:05:00Z,26.0630,-83.0730,72.25,1111122 
COMPS,ioos:station:USF.COMPS:C13:1,2016-09-03T06:35:00Z,26.0630,-83.0730,71.26,1111122 
COMPS,ioos:station:USF.COMPS:C13:1,2016-09-03T07:05:00Z,26.0630,-83.0730,73.11,1111122 
COMPS,ioos:station:USF.COMPS:C13:1,2016-09-03T07:35:00Z,26.0630,-83.0730,73.82,1111122 
COMPS,ioos:station:USF.COMPS:C13:1,2016-09-03T08:05:00Z,26.0630,-83.0730,74.91,1111122 
COMPS,ioos:station:USF.COMPS:C13:1,2016-09-03T08:35:00Z,26.0630,-83.0730,76.34,1111122 
COMPS,ioos:station:USF.COMPS:C13:1,2016-09-03T09:05:00Z,26.0630,-83.0730,76.44,1111122 
COMPS,ioos:station:USF.COMPS:C13:1,2016-09-03T09:35:00Z,26.0630,-83.0730,75.83,1111122 
COMPS,ioos:station:USF.COMPS:C13:1,2016-09-03T10:05:00Z,26.0630,-83.0730,74.27,1111122 
COMPS,ioos:station:USF.COMPS:C13:1,2016-09-03T10:35:00Z,26.0630,-83.0730,72.93,1111122 
COMPS,ioos:station:USF.COMPS:C13:1,2016-09-03T11:05:00Z,26.0630,-83.0730,68.34,1111122 
COMPS,ioos:station:USF.COMPS:C13:1,2016-09-03T11:35:00Z,26.0630,-83.0730,71.5,1111122 
COMPS,ioos:station:USF.COMPS:C13:1,2016-09-03T12:05:00Z,26.0630,-83.0730,73.54,1111122 
COMPS,ioos:station:USF.COMPS:C13:1,2016-09-03T12:35:00Z,26.0630,-83.0730,71.17,1111122 
COMPS,ioos:station:USF.COMPS:C13:1,2016-09-03T13:05:00Z,26.0630,-83.0730,71.52,1111122 
COMPS,ioos:station:USF.COMPS:C13:1,2016-09-03T13:35:00Z,26.0630,-83.0730,72.08,1111122 
COMPS,ioos:station:USF.COMPS:C13:1,2016-09-03T14:05:00Z,26.0630,-83.0730,74.72,1111122 
COMPS,ioos:station:USF.COMPS:C13:1,2016-09-03T14:35:00Z,26.0630,-83.0730,78.43,1111122 
COMPS,ioos:station:USF.COMPS:C13:1,2016-09-03T15:05:00Z,26.0630,-83.0730,80.5,1111122 
COMPS,ioos:station:USF.COMPS:C13:1,2016-09-03T15:35:00Z,26.0630,-83.0730,78.56,1111122 
COMPS,ioos:station:USF.COMPS:C13:1,2016-09-03T16:05:00Z,26.0630,-83.0730,78.18,1111122 
COMPS,ioos:station:USF.COMPS:C13:1,2016-09-03T16:35:00Z,26.0630,-83.0730,78.73,1111122 
COMPS,ioos:station:USF.COMPS:C13:1,2016-09-03T17:05:00Z,26.0630,-83.0730,77.35,1111122 
COMPS,ioos:station:USF.COMPS:C13:1,2016-09-03T17:35:00Z,26.0630,-83.0730,76.85,1111122 
COMPS,ioos:station:USF.COMPS:C13:1,2016-09-03T18:05:00Z,26.0630,-83.0730,77.06,1111122 
COMPS,ioos:station:USF.COMPS:C13:1,2016-09-03T18:35:00Z,26.0630,-83.0730,76.58,1111122 
COMPS,ioos:station:USF.COMPS:C13:1,2016-09-03T19:05:00Z,26.0630,-83.0730,77.34,1111122 
COMPS,ioos:station:USF.COMPS:C13:1,2016-09-03T19:35:00Z,26.0630,-83.0730,75.33,1111122 
COMPS,ioos:station:USF.COMPS:C13:1,2016-09-03T20:05:00Z,26.0630,-83.0730,77.35,1111122 
COMPS,ioos:station:USF.COMPS:C13:1,2016-09-03T20:35:00Z,26.0630,-83.0730,76.78,1111122 
COMPS,ioos:station:USF.COMPS:C13:1,2016-09-03T21:05:00Z,26.0630,-83.0730,74.12,1111122 
COMPS,ioos:station:USF.COMPS:C13:1,2016-09-03T21:35:00Z,26.0630,-83.0730,74.61,1111122 
COMPS,ioos:station:USF.COMPS:C13:1,2016-09-03T22:05:00Z,26.0630,-83.0730,74.96,1111122 
COMPS,ioos:station:USF.COMPS:C13:1,2016-09-03T22:35:00Z,26.0630,-83.0730,72.64,1111122 
COMPS,ioos:station:USF.COMPS:C13:1,2016-09-03T23:05:00Z,26.0630,-83.0730,76.77,1111122 
COMPS,ioos:station:USF.COMPS:C13:1,2016-09-03T23:35:00Z,26.0630,-83.0730,78.31,1111122 
COMPS,ioos:station:USF.COMPS:C13:1,2016-09-04T00:05:00Z,26.0630,-83.0730,79.17,1111122 
COMPS,ioos:station:USF.COMPS:C13:1,2016-09-04T00:35:00Z,26.0630,-83.0730,79.61,1111122 
COMPS,ioos:station:USF.COMPS:C13:1,2016-09-04T01:05:00Z,26.0630,-83.0730,78.96,1111122 
COMPS,ioos:station:USF.COMPS:C13:1,2016-09-04T01:35:00Z,26.0630,-83.0730,81.04,1111122 
COMPS,ioos:station:USF.COMPS:C13:1,2016-09-04T02:05:00Z,26.0630,-83.0730,83.07,1111122 
COMPS,ioos:station:USF.COMPS:C13:1,2016-09-04T02:35:00Z,26.0630,-83.0730,83.19,1111122 
COMPS,ioos:station:USF.COMPS:C13:1,2016-09-04T03:05:00Z,26.0630,-83.0730,82.27,1111122 
COMPS,ioos:station:USF.COMPS:C13:1,2016-09-04T03:35:00Z,26.0630,-83.0730,80.94,1111122 
COMPS,ioos:station:USF.COMPS:C13:1,2016-09-04T04:05:00Z,26.0630,-83.0730,80.35,1111122 
COMPS,ioos:station:USF.COMPS:C13:1,2016-09-04T04:35:00Z,26.0630,-83.0730,80.41,1111122 
COMPS,ioos:station:USF.COMPS:C13:1,2016-09-04T05:05:00Z,26.0630,-83.0730,80.73,1111122 
COMPS,ioos:station:USF.COMPS:C13:1,2016-09-04T05:35:00Z,26.0630,-83.0730,83.29,1111122 
COMPS,ioos:station:USF.COMPS:C13:1,2016-09-04T06:05:00Z,26.0630,-83.0730,82.57,1111122 
COMPS,ioos:station:USF.COMPS:C13:1,2016-09-04T06:35:00Z,26.0630,-83.0730,84.02,1111122 
COMPS,ioos:station:USF.COMPS:C13:1,2016-09-04T07:05:00Z,26.0630,-83.0730,84.6,1111122 
COMPS,ioos:station:USF.COMPS:C13:1,2016-09-04T07:35:00Z,26.0630,-83.0730,84.37,1111122 
COMPS,ioos:station:USF.COMPS:C13:1,2016-09-04T08:05:00Z,26.0630,-83.0730,84.69,1111122 
COMPS,ioos:station:USF.COMPS:C13:1,2016-09-04T08:35:00Z,26.0630,-83.0730,84.51,1111122 
COMPS,ioos:station:USF.COMPS:C13:1,2016-09-04T09:05:00Z,26.0630,-83.0730,82.88,1111122 
COMPS,ioos:station:USF.COMPS:C13:1,2016-09-04T09:35:00Z,26.0630,-83.0730,81.72,1111122 
COMPS,ioos:station:USF.COMPS:C13:1,2016-09-04T10:05:00Z,26.0630,-83.0730,81.25,1111122 
COMPS,ioos:station:USF.COMPS:C13:1,2016-09-04T10:35:00Z,26.0630,-83.0730,81.6,1111122 
COMPS,ioos:station:USF.COMPS:C13:1,2016-09-04T13:05:00Z,26.0630,-83.0730,76.39,1111122 
COMPS,ioos:station:USF.COMPS:C13:1,2016-09-04T13:35:00Z,26.0630,-83.0730,76.08,1111122 
COMPS,ioos:station:USF.COMPS:C13:1,2016-09-04T14:05:00Z,26.0630,-83.0730,78.31,1111122 
COMPS,ioos:station:USF.COMPS:C13:1,2016-09-04T14:35:00Z,26.0630,-83.0730,76.06,1111122 
COMPS,ioos:station:USF.COMPS:C13:1,2016-09-04T15:05:00Z,26.0630,-83.0730,76.18,1111122 
COMPS,ioos:station:USF.COMPS:C13:1,2016-09-04T15:35:00Z,26.0630,-83.0730,76.65,1111122 
COMPS,ioos:station:USF.COMPS:C13:1,2016-09-04T16:05:00Z,26.0630,-83.0730,77.21,1111122 
COMPS,ioos:station:USF.COMPS:C13:1,2016-09-04T16:35:00Z,26.0630,-83.0730,75.18,1111122 
COMPS,ioos:station:USF.COMPS:C13:1,2016-09-04T17:05:00Z,26.0630,-83.0730,75.92,1111122 
COMPS,ioos:station:USF.COMPS:C13:1,2016-09-04T17:35:00Z,26.0630,-83.0730,76.13,1111122 
COMPS,ioos:station:USF.COMPS:C13:1,2016-09-04T18:05:00Z,26.0630,-83.0730,76.76,1111122 
COMPS,ioos:station:USF.COMPS:C13:1,2016-09-04T18:35:00Z,26.0630,-83.0730,77.28,1111122 
COMPS,ioos:station:USF.COMPS:C13:1,2016-09-04T19:05:00Z,26.0630,-83.0730,74.68,1111122 
COMPS,ioos:station:USF.COMPS:C13:1,2016-09-04T19:35:00Z,26.0630,-83.0730,75.65,1111122 
COMPS,ioos:station:USF.COMPS:C13:1,2016-09-04T20:05:00Z,26.0630,-83.0730,74.42,1111122 
COMPS,ioos:station:USF.COMPS:C13:1,2016-09-04T20:35:00Z,26.0630,-83.0730,74.57,1111122 
COMPS,ioos:station:USF.COMPS:C13:1,2016-09-04T21:05:00Z,26.0630,-83.0730,72.65,1111122 
COMPS,ioos:station:USF.COMPS:C13:1,2016-09-04T21:35:00Z,26.0630,-83.0730,73.44,1111122 
COMPS,ioos:station:USF.COMPS:C13:1,2016-09-04T22:05:00Z,26.0630,-83.0730,74.94,1111122 
COMPS,ioos:station:USF.COMPS:C13:1,2016-09-04T22:35:00Z,26.0630,-83.0730,73.45,1111122 
COMPS,ioos:station:USF.COMPS:C13:1,2016-09-04T23:05:00Z,26.0630,-83.0730,75.43,1111122 
COMPS,ioos:station:USF.COMPS:C13:1,2016-09-04T23:35:00Z,26.0630,-83.0730,75.13,1111122 
COMPS,ioos:station:USF.COMPS:C13:1,2016-09-05T00:05:00Z,26.0630,-83.0730,76.34,1111122 
COMPS,ioos:station:USF.COMPS:C13:1,2016-09-05T00:35:00Z,26.0630,-83.0730,74.4,1111122 
COMPS,ioos:station:USF.COMPS:C13:1,2016-09-05T01:05:00Z,26.0630,-83.0730,73.99,1111122 
COMPS,ioos:station:USF.COMPS:C13:1,2016-09-05T01:35:00Z,26.0630,-83.0730,74.72,1111122 
COMPS,ioos:station:USF.COMPS:C13:1,2016-09-05T02:05:00Z,26.0630,-83.0730,77.14,1111122 
COMPS,ioos:station:USF.COMPS:C13:1,2016-09-05T02:35:00Z,26.0630,-83.0730,78.9,1111122 
COMPS,ioos:station:USF.COMPS:C13:1,2016-09-05T03:05:00Z,26.0630,-83.0730,78.36,1111122 
COMPS,ioos:station:USF.COMPS:C13:1,2016-09-05T03:35:00Z,26.0630,-83.0730,78.15,1111122 
COMPS,ioos:station:USF.COMPS:C13:1,2016-09-05T04:05:00Z,26.0630,-83.0730,79.49,1111122 
COMPS,ioos:station:USF.COMPS:C13:1,2016-09-05T04:35:00Z,26.0630,-83.0730,80.4,1111122 
COMPS,ioos:station:USF.COMPS:C13:1,2016-09-05T05:05:00Z,26.0630,-83.0730,79.09,1111122 
COMPS,ioos:station:USF.COMPS:C13:1,2016-09-05T05:35:00Z,26.0630,-83.0730,80.44,1111122 
COMPS,ioos:station:USF.COMPS:C13:1,2016-09-05T06:05:00Z,26.0630,-83.0730,80.32,1111122 
COMPS,ioos:station:USF.COMPS:C13:1,2016-09-05T06:35:00Z,26.0630,-83.0730,78.06,1111122 
COMPS,ioos:station:USF.COMPS:C13:1,2016-09-05T07:05:00Z,26.0630,-83.0730,77.51,1111122 
COMPS,ioos:station:USF.COMPS:C13:1,2016-09-05T07:35:00Z,26.0630,-83.0730,78.44,1111122 
COMPS,ioos:station:USF.COMPS:C13:1,2016-09-05T08:05:00Z,26.0630,-83.0730,79.94,1111122 
COMPS,ioos:station:USF.COMPS:C13:1,2016-09-05T08:35:00Z,26.0630,-83.0730,77.76,1111122 
COMPS,ioos:station:USF.COMPS:C13:1,2016-09-05T09:05:00Z,26.0630,-83.0730,75.46,1111122 
COMPS,ioos:station:USF.COMPS:C13:1,2016-09-05T09:35:00Z,26.0630,-83.0730,77.86,1111122 
COMPS,ioos:station:USF.COMPS:C13:1,2016-09-05T10:05:00Z,26.0630,-83.0730,78.23,1111122 
COMPS,ioos:station:USF.COMPS:C13:1,2016-09-05T10:35:00Z,26.0630,-83.0730,81.19,1111122 
COMPS,ioos:station:USF.COMPS:C13:1,2016-09-05T12:05:00Z,26.0630,-83.0730,82.0,1111122 
COMPS,ioos:station:USF.COMPS:C13:1,2016-09-05T12:35:00Z,26.0630,-83.0730,82.33,1111122 
COMPS,ioos:station:USF.COMPS:C13:1,2016-09-05T14:05:00Z,26.0630,-83.0730,81.26,1111122 
COMPS,ioos:station:USF.COMPS:C13:1,2016-09-05T14:35:00Z,26.0630,-83.0730,81.34,1111122 
COMPS,ioos:station:USF.COMPS:C13:1,2016-09-05T15:05:00Z,26.0630,-83.0730,80.88,1111122 
COMPS,ioos:station:USF.COMPS:C13:1,2016-09-05T15:35:00Z,26.0630,-83.0730,81.67,1111122 
COMPS,ioos:station:USF.COMPS:C13:1,2016-09-05T16:05:00Z,26.0630,-83.0730,82.53,1111122 
COMPS,ioos:station:USF.COMPS:C13:1,2016-09-05T16:35:00Z,26.0630,-83.0730,83.23,1111122 
COMPS,ioos:station:USF.COMPS:C13:1,2016-09-05T17:05:00Z,26.0630,-83.0730,85.01,1111122 
COMPS,ioos:station:USF.COMPS:C13:1,2016-09-05T17:35:00Z,26.0630,-83.0730,83.26,1111122 
COMPS,ioos:station:USF.COMPS:C13:1,2016-09-05T19:05:00Z,26.0630,-83.0730,83.25,1111122 
COMPS,ioos:station:USF.COMPS:C13:1,2016-09-05T19:35:00Z,26.0630,-83.0730,82.77,1111122 
COMPS,ioos:station:USF.COMPS:C13:1,2016-09-05T20:05:00Z,26.0630,-83.0730,81.92,1111122 
COMPS,ioos:station:USF.COMPS:C13:1,2016-09-05T20:35:00Z,26.0630,-83.0730,81.71,1111122 
COMPS,ioos:station:USF.COMPS:C13:1,2016-09-05T22:05:00Z,26.0630,-83.0730,79.72,1111122 
COMPS,ioos:station:USF.COMPS:C13:1,2016-09-05T22:35:00Z,26.0630,-83.0730,78.09,1111122 
COMPS,ioos:station:USF.COMPS:C13:1,2016-09-06T00:05:00Z,26.0630,-83.0730,80.53,1111122 
COMPS,ioos:station:USF.COMPS:C13:1,2016-09-06T00:35:00Z,26.0630,-83.0730,81.89,1111122 
COMPS,ioos:station:USF.COMPS:C13:1,2016-09-06T01:05:00Z,26.0630,-83.0730,81.38,1111122 
COMPS,ioos:station:USF.COMPS:C13:1,2016-09-06T01:35:00Z,26.0630,-83.0730,80.94,1111122 
COMPS,ioos:station:USF.COMPS:C13:1,2016-09-06T02:05:00Z,26.0630,-83.0730,78.28,1111122 
COMPS,ioos:station:USF.COMPS:C13:1,2016-09-06T02:35:00Z,26.0630,-83.0730,78.74,1111122 
COMPS,ioos:station:USF.COMPS:C13:1,2016-09-06T03:05:00Z,26.0630,-83.0730,79.47,1111122 
COMPS,ioos:station:USF.COMPS:C13:1,2016-09-06T03:35:00Z,26.0630,-83.0730,77.45,1111122 
COMPS,ioos:station:USF.COMPS:C13:1,2016-09-06T04:05:00Z,26.0630,-83.0730,76.62,1111122 
COMPS,ioos:station:USF.COMPS:C13:1,2016-09-06T04:35:00Z,26.0630,-83.0730,79.82,1111122 
COMPS,ioos:station:USF.COMPS:C13:1,2016-09-06T05:05:00Z,26.0630,-83.0730,81.95,1111122 
COMPS,ioos:station:USF.COMPS:C13:1,2016-09-06T05:35:00Z,26.0630,-83.0730,80.07,1111122 
COMPS,ioos:station:USF.COMPS:C13:1,2016-09-06T11:05:00Z,26.0630,-83.0730,81.11,1111122 
COMPS,ioos:station:USF.COMPS:C13:1,2016-09-06T11:35:00Z,26.0630,-83.0730,80.37,1111122 
COMPS,ioos:station:USF.COMPS:C13:1,2016-09-06T12:05:00Z,26.0630,-83.0730,78.78,1111122 
COMPS,ioos:station:USF.COMPS:C13:1,2016-09-06T12:35:00Z,26.0630,-83.0730,78.27,1111122 
COMPS,ioos:station:USF.COMPS:C13:1,2016-09-06T13:05:00Z,26.0630,-83.0730,77.47,1111122 
COMPS,ioos:station:USF.COMPS:C13:1,2016-09-06T13:35:00Z,26.0630,-83.0730,78.95,1111122 
COMPS,ioos:station:USF.COMPS:C13:1,2016-09-06T16:05:00Z,26.0630,-83.0730,78.05,1111122 
COMPS,ioos:station:USF.COMPS:C13:1,2016-09-06T16:35:00Z,26.0630,-83.0730,78.83,1111122 
COMPS,ioos:station:USF.COMPS:C13:1,2016-09-06T19:05:00Z,26.0630,-83.0730,78.46,1111122 
COMPS,ioos:station:USF.COMPS:C13:1,2016-09-06T19:35:00Z,26.0630,-83.0730,77.86,1111122 
COMPS,ioos:station:USF.COMPS:C13:1,2016-09-06T20:05:00Z,26.0630,-83.0730,77.76,1111122 
COMPS,ioos:station:USF.COMPS:C13:1,2016-09-06T20:35:00Z,26.0630,-83.0730,77.4,1111122 
COMPS,ioos:station:USF.COMPS:C13:1,2016-09-06T21:05:00Z,26.0630,-83.0730,76.85,1111122 
COMPS,ioos:station:USF.COMPS:C13:1,2016-09-06T21:35:00Z,26.0630,-83.0730,76.74,1111122 
COMPS,ioos:station:USF.COMPS:C13:1,2016-09-06T22:05:00Z,26.0630,-83.0730,76.89,1111122 
COMPS,ioos:station:USF.COMPS:C13:1,2016-09-06T22:35:00Z,26.0630,-83.0730,74.99,1111122 
COMPS,ioos:station:USF.COMPS:C13:1,2016-09-06T23:05:00Z,26.0630,-83.0730,74.89,1111122 
COMPS,ioos:station:USF.COMPS:C13:1,2016-09-06T23:35:00Z,26.0630,-83.0730,76.46,1111122 
COMPS,ioos:station:USF.COMPS:C13:1,2016-09-07T00:05:00Z,26.0630,-83.0730,77.52,1111122 
COMPS,ioos:station:USF.COMPS:C13:1,2016-09-07T00:35:00Z,26.0630,-83.0730,78.58,1111122 
COMPS,ioos:station:USF.COMPS:C13:1,2016-09-07T01:05:00Z,26.0630,-83.0730,79.17,1111122 
COMPS,ioos:station:USF.COMPS:C13:1,2016-09-07T01:35:00Z,26.0630,-83.0730,79.2,1111122 
COMPS,ioos:station:USF.COMPS:C13:1,2016-09-07T02:05:00Z,26.0630,-83.0730,75.18,1111122 
COMPS,ioos:station:USF.COMPS:C13:1,2016-09-07T02:35:00Z,26.0630,-83.0730,77.15,1111122 
COMPS,ioos:station:USF.COMPS:C13:1,2016-09-07T03:05:00Z,26.0630,-83.0730,77.84,1111122 
COMPS,ioos:station:USF.COMPS:C13:1,2016-09-07T03:35:00Z,26.0630,-83.0730,74.05,1111122 
COMPS,ioos:station:USF.COMPS:C13:1,2016-09-07T05:05:00Z,26.0630,-83.0730,77.36,1111122 
COMPS,ioos:station:USF.COMPS:C13:1,2016-09-07T05:35:00Z,26.0630,-83.0730,78.49,1111122 
COMPS,ioos:station:USF.COMPS:C13:1,2016-09-07T07:05:00Z,26.0630,-83.0730,78.71,1111122 
COMPS,ioos:station:USF.COMPS:C13:1,2016-09-07T07:35:00Z,26.0630,-83.0730,79.31,1111122 
COMPS,ioos:station:USF.COMPS:C13:1,2016-09-07T10:05:00Z,26.0630,-83.0730,79.02,1111122 
COMPS,ioos:station:USF.COMPS:C13:1,2016-09-07T10:35:00Z,26.0630,-83.0730,78.54,1111122 
COMPS,ioos:station:USF.COMPS:C13:1,2016-09-07T12:05:00Z,26.0630,-83.0730,76.72,1111122 
COMPS,ioos:station:USF.COMPS:C13:1,2016-09-07T12:35:00Z,26.0630,-83.0730,73.58,1111122 
COMPS,ioos:station:USF.COMPS:C13:1,2016-09-07T13:05:00Z,26.0630,-83.0730,74.12,1111122 
COMPS,ioos:station:USF.COMPS:C13:1,2016-09-07T13:35:00Z,26.0630,-83.0730,76.91,1111122 